Tracking 35036 objects as of 15-Aug-2026
HD Live streaming from Space Station
objects crossing your sky now

STARLINK-38161


10-day predictions
STARLINK-38161 is classified as:


NORAD ID: 100106
Int'l Code: 2026-166F
Launch date: July 21, 2026
Source: United States (US)
Launch site: AIR FORCE WESTERN TEST RANGE (AFWTR)
Your satellite tracking list
Your tracking list is empty




NASA's NSSDC Master Catalog

Two Line Element Set (TLE):
1 A0106U 26166F   26227.54445733  .00005978  00000-0  40922-4 0  9992
2 A0106  97.2846 244.1264 0000963  49.5292 310.6057 15.75187241  3946
Source of the keplerian elements: AFSPC